Regional Weather Roundup
Issued by NWS Albany, NY

Home | Current Version | Previous Version | Text Only | Print | Product List | Glossary On
Versions: 1 2 3 4 5 6 7 8 9 10 11 12 13 14 15 16 17 18 19 20 21
000
ASUS41 KALY 310710
RWRALY

NEW YORK STATE HOURLY WEATHER ROUNDUP
NATIONAL WEATHER SERVICE ALBANY NY
300 AM EDT FRI OCT 31 2014

NOTE: "FAIR" INDICATES FEW OR NO CLOUDS BELOW 12,000 FEET WITH NO
SIGNIFICANT WEATHER AND/OR NO OBSTRUCTIONS TO VISIBILITY.

NYZ032-033-038>043-046>054-057>066-NYZ062>081-310800-
EAST


CITY           SKY/WX    TMP DP  RH WIND       PRES   REMARKS
ALBANY         PTCLDY    33  30  88 CALM      30.04S
GLENS FALLS    PTCLDY    30  28  92 CALM      30.03S
POUGHKEEPSIE   CLOUDY    42  35  76 CALM      30.02F
MONTGOMERY     CLEAR     34  32  92 CALM      30.02S
WHITE PLAINS   CLEAR     43  32  65 N7        30.00S
ISLIP          CLOUDY    46  37  71 N6        29.99F
NEW YORK CITY  PTCLDY    47  37  68 N8        30.02S
CENTRAL PARK   CLEAR     47  36  65 VRB5      30.04S
$$

NYZ005>009-017-018-044>046-055-056-310800-
CENTRAL


CITY           SKY/WX    TMP DP  RH WIND       PRES   REMARKS
FULTON         PTCLDY    36  33  89 S3        30.01F
SYRACUSE       LGT RAIN  40  36  86 SE3       30.02S
ROME           PTCLDY    32  31  96 CALM      30.04S
ELMIRA         MOCLDY    32  30  92 CALM      30.01F
BINGHAMTON     CLEAR     35  30  82 CALM      29.99F
MONTICELLO     CLEAR     30  28  93 CALM      30.02S
$$

NYZ026>034-041>043-310800-
NORTH


CITY           SKY/WX    TMP DP  RH WIND       PRES   REMARKS
WATERTOWN      MOCLDY    32  27  81 E5        30.01F WCI  27
FORT DRUM      NOT AVBL
MASSENA        CLOUDY    38  30  73 CALM      30.05R
SARANAC LAKE   CLOUDY    30  29  96 CALM      29.97R
PLATTSBURGH    MOCLDY    38  34  85 CALM      30.02S
$$

NYZ001>004-010>016-019>021-310800-
WEST


CITY           SKY/WX    TMP DP  RH WIND       PRES   REMARKS
NIAGARA FALLS  LGT RAIN  42  37  82 S6        29.98F
BUFFALO        CLOUDY    43  36  76 SE5       29.99F
DUNKIRK        CLOUDY    44  38  79 S8        29.98F
JAMESTOWN      CLOUDY    37  36  93 SW5       29.97F WCI  34
WELLSVILLE     CLOUDY    38  32  79 CALM      29.98F
ROCHESTER      CLOUDY    42  37  82 SW5       30.00F
PENN YAN       CLOUDY    41  37  86 S5        30.01F
$$

             KEY
       WCI = WIND CHILL INDEX
       VSB = VISIBILITY
       HX  = HEAT INDEX
$$



USA.gov is the U.S. government's official web portal to all federal, state and local government web resources and services.